Weather History for Belize, Belize

Change the Weather History Date:

Tuesday, May 20, 2014

  Actual Average Record
Temperature  
Mean Temperature 81 °F -  
Max Temperature 87 °F 89 °F 89 °F (1997)
Min Temperature 75 °F 77 °F 74 °F (2012)
Cooling Degree Days 16    
Growing Degree Days 31 (Base 50)    
Moisture  
Dew Point 76 °F    
Average Humidity 81    
Maximum Humidity 100    
Minimum Humidity 66    
Precipitation  
Precipitation 0.00 in 0.27 in - ()
Sea Level Pressure  
Sea Level Pressure 29.95 in    
Wind  
Wind Speed 5 mph ()    
Max Wind Speed 14 mph    
Max Gust Speed -    
Visibility 8.2 miles    
Events Rain    
Averages and records for this station are not official NWS values.
T = Trace of Precipitation, MM = Missing Value Source: Averaged Metar Reports

Daily Weather History Graph

Daily Weather History Graph

Search for Another Location

Airport:

Trip Planner

Search our weather history database for the weather conditions in past years. The results will help you decide how hot, cold, wet, or windy it might be!

Date:

Astronomy

May. 20, 2014 Rise Set
Actual Time 5:19 AM CST 6:20 PM CST
Civil Twilight 4:56 AM CST 6:43 PM CST
Nautical Twilight 4:28 AM CST 7:11 PM CST
Astronomical Twilight 4:00 AM CST 7:39 PM CST
Moon 11:57 PM CST 11:04 AM CST
Length of Visible Light 13h 47m
Length of Day
13h 00m
Waning Gibbous, 59% of the Moon is Illuminated
May 20
Waning Gibbous
May 21
Last Quarter
May 28
New
Jun 5
First Quarter
Jun 12
Full

Hourly Weather History & Observations

Time (CST) Temp. Heat Index Dew Point Humidity Pressure Visibility Wind Dir Wind Speed Gust Speed Precip Events Conditions
12:00 AM 78 °F - 77 °F 94% 29.96 in 12 mi Calm Calm - -   Partly Cloudy
3:00 AM 77 °F - 75 °F 93% 29.94 in 12 mi Calm Calm - -  
5:00 AM 75.2 °F - 75.2 °F 100% 29.94 in 6.2 mi NNW 3.5 mph - N/A   Mostly Cloudy
6:00 AM 76 °F - 75 °F 94% 29.96 in 12 mi Calm Calm - -   Mostly Cloudy
6:00 AM 75.2 °F - 75.2 °F 100% 29.95 in 6.2 mi Calm Calm - N/A   Mostly Cloudy
7:00 AM 77.0 °F - 75.2 °F 94% 29.98 in 6.2 mi North 4.6 mph - N/A Rain Light Rain Showers
8:00 AM 80.6 °F 87.1 °F 77.0 °F 89% 29.98 in 6.2 mi North 5.8 mph - N/A   Partly Cloudy
9:00 AM 85 °F - 76 °F 68% 30.00 in 12 mi NNE 6.9 mph - -   Partly Cloudy
9:00 AM 84.2 °F 92.3 °F 75.2 °F 74% 29.99 in 6.2 mi NNE 6.9 mph - N/A   Scattered Clouds
10:00 AM 86.0 °F 95.1 °F 75.2 °F 70% 29.98 in 6.2 mi NE 8.1 mph - N/A   Scattered Clouds
11:00 AM 86.0 °F 96.9 °F 77.0 °F 74% 29.97 in 6.2 mi NE 11.5 mph - N/A   Scattered Clouds
12:00 PM 86 °F - 76 °F 66% 29.96 in 12 mi NNE 13.8 mph - -   Partly Cloudy
12:00 PM 86.0 °F 96.9 °F 77.0 °F 74% 29.95 in 6.2 mi NNE 13.8 mph - N/A   Scattered Clouds
1:00 PM 86.0 °F 96.9 °F 77.0 °F 74% 29.93 in 6.2 mi NE 12.7 mph - N/A   Scattered Clouds
3:00 PM 87 °F - 78 °F 68% 29.92 in 12 mi ENE 12.7 mph - -   Partly Cloudy
3:00 PM 87.8 °F 99.7 °F 77.0 °F 70% 29.91 in 6.2 mi ENE 12.7 mph - N/A   Scattered Clouds
4:00 PM 84.2 °F 92.3 °F 75.2 °F 74% 29.90 in 6.2 mi ENE 13.8 mph - N/A   Scattered Clouds
5:00 PM 84.2 °F 92.3 °F 75.2 °F 74% 29.90 in 6.2 mi ENE 12.7 mph - N/A   Scattered Clouds
6:00 PM 83 °F - 76 °F 74% 29.93 in 12 mi ENE 11.5 mph - -   Partly Cloudy
6:00 PM 82.4 °F 90.9 °F 77.0 °F 84% 29.92 in 6.2 mi ENE 11.5 mph - N/A   Scattered Clouds
8:00 PM 82.4 °F 89.5 °F 75.2 °F 79% 29.95 in 6.2 mi East 10.4 mph - N/A   Scattered Clouds
9:00 PM 81 °F - 76 °F 81% 29.97 in 12 mi East 6.9 mph - -   Partly Cloudy
9:00 PM 80.6 °F 87.1 °F 77.0 °F 89% 29.96 in 6.2 mi East 6.9 mph - N/A   Scattered Clouds